Погода в Сопохе

Россия / Республика Карелия     62°20′02″N   34°00′39″E
темп.,
°C
ветер,
м/с
пор.,
м/с
влажн.,
%
обл.,
%
осадки,
мм/ч
давл.,
гПа
погр.,
м
21 апреля, ср
ср2100:00+2вюв2567100 0.0 101999
03:00+1вюв2374100 0.0 101873
06:000вюв2680100 0.0 1015149
09:00+4в3664100 0.0 1012309
12:00+6в3760100 0.0 1009906
15:00+2всв3997100 2.8 1006506
18:00+2всв2799100 1.6 1003331
21:00+2в1499100 3.1 1001229
22 апреля, чт
чт2200:00+1ю1399100 0.9 1000147
03:00+1юз2593100 1.1 1001567
06:00+1ююз2797100 0.2 1001342
09:00+1ююз379899 0.5 1002369
12:00+2юз3793100 0.3 1004662
15:00+3ююз2898100 0.3 1006470
18:00+5юз1688100 0.0 1007464
21:00+4вюв119166 0.0 100820
23 апреля, пт
пт2300:00+1вюв249822 0.0 100875
03:00+2вюв3899100 0.0 1007195
06:00+2вюв2697100 0.1 1006171
09:00+5юв3589100 0.1 1007255
12:00+5юв2495100 1.1 1007234
15:00+6ю1487100 2.3 1008585
18:00+6ю2587100 0.9 1008843
21:00+3вюв119399 2.6 100963
24 апреля, сб
сб2400:00+1юв2797100 0.0 1010174
03:00+2вюв2797100 0.0 1010226
06:00+2вюв2597100 0.0 1009161
09:00+3вюв2493100 0.0 1008255
12:00+4ссв2593100 1.1 1007493
15:00+3ссз4997100 4.1 1006509
18:00+1сз41098100 5.5 1004432
21:00+2з3698100 7.7 1003466
25 апреля, вс
вс2500:00+2зюз2693100 0.1 1003600
03:00+2юз259695 0.1 1003334
06:00+2ююз1297100 0.0 1003117
09:00+3зсз2387100 0.1 1004447
12:00+3ссз2496100 0.4 1004407
15:00+3сз2697100 1.4 1004516
18:00+3сз3798100 0.7 1003356
21:00+3сз2798100 0.9 1003275